KF7HDR Weather Reports


Display with metric or nautical units.
time (UTC)temp
F
wind
direction
speed
MPH
gust
MPH
rain 1hr
in
rain 24hr
in
rain mn
in
humidity
%
barometer
mb
20260901172556 57 213 1.0 3.0 0.00 0.00 0.00 95 1014.2
20260901171555 57 171 1.0 3.0 0.00 0.00 0.00 95 1014.1
20260901170553 57 257 1.0 3.0 0.00 0.00 0.00 95 1014.1
20260901165552 57 79 1.0 3.0 0.00 0.00 0.00 95 1014.1
20260901164611 57 183 1.0 3.0 0.00 0.00 0.00 94 1014.0
20260901163609 57 176 1.0 3.0 0.00 0.00 0.00 93 1014.0
20260901162547 57 263 2.0 3.0 0.00 0.00 0.00 92 1014.1
20260901161545 57 208 1.0 2.0 0.00 0.00 0.00 91 1014.0
20260901160543 58 190 1.0 3.0 0.00 0.00 0.00 90 1014.0
20260901155540 58 67 1.0 3.0 0.00 0.00 0.00 88 1014.0
20260901154538 58 145 0.0 2.0 0.00 0.00 0.00 87 1013.9
20260901153538 58 214 1.0 2.0 0.00 0.00 0.00 87 1014.0
20260901152536 58 197 1.0 2.0 0.00 0.00 0.00 87 1014.0
20260901151534 58 169 1.0 2.0 0.00 0.00 0.00 87 1013.9
20260901150533 58 323 1.0 3.0 0.00 0.00 0.00 86 1013.7
20260901145532 58 273 2.0 3.0 0.00 0.00 0.00 86 1013.6
20260901144530 57 247 0.0 2.0 0.00 0.00 0.00 87 1013.6
20260901143528 57 151 1.0 3.0 0.00 0.00 0.00 87 1013.6
20260901142526 57 211 0.0 3.0 0.00 0.00 0.00 87 1013.5
20260901141525 57 303 1.0 3.0 0.00 0.00 0.00 87 1013.5
20260901140543 57 121 0.0 2.0 0.00 0.00 0.00 87 1013.5
20260901135541 57 307 1.0 3.0 0.00 0.00 0.00 87 1013.4
20260901134518 57 211 1.0 3.0 0.00 0.00 0.00 87 1013.4
20260901133516 57 150 2.0 3.0 0.00 0.00 0.00 87 1013.3
20260901132614 57 0.0 3.0 0.00 0.00 0.00 87 1013.3
20260901131612 57 270 2.0 4.0 0.00 0.00 0.00 87 1013.3
20260901130610 57 155 2.0 4.0 0.00 0.00 0.00 87 1013.2
20260901125628 57 137 1.0 4.0 0.00 0.00 0.00 87 1013.2
20260901124606 57 270 2.0 5.0 0.00 0.00 0.00 87 1013.1
20260901123604 57 310 2.0 4.0 0.00 0.00 0.00 87 1013.1
20260901122603 57 97 2.0 4.0 0.00 0.00 0.00 88 1013.2
20260901121601 57 69 2.0 4.0 0.00 0.00 0.00 88 1013.2
20260901120600 57 323 2.0 5.0 0.00 0.00 0.00 88 1013.1
20260901115558 57 75 2.0 4.0 0.00 0.00 0.00 88 1013.3
20260901114557 57 280 3.0 5.0 0.00 0.00 0.00 88 1013.1
20260901113555 56 0.0 2.0 0.00 0.00 0.00 89 1013.2
20260901112554 56 153 1.0 4.0 0.00 0.00 0.00 89 1013.1
20260901111634 55 201 1.0 4.0 0.00 0.00 0.00 91 1013.0
20260901110550 55 115 3.0 4.0 0.00 0.00 0.00 91 1013.0
20260901105549 55 250 1.0 4.0 0.00 0.00 0.00 90 1012.8
20260901104548 56 284 3.0 6.0 0.00 0.00 0.00 89 1012.9
20260901103546 56 42 0.0 2.0 0.00 0.00 0.00 89 1012.9
20260901102544 56 207 0.0 1.0 0.00 0.00 0.00 88 1012.8
20260901101542 56 0.0 2.0 0.00 0.00 0.00 88 1012.8
20260901100540 57 197 0.0 2.0 0.00 0.00 0.00 87 1012.8
20260901095537 57 335 1.0 2.0 0.00 0.00 0.00 87 1012.8
20260901094555 57 352 0.0 2.0 0.00 0.00 0.00 87 1012.6
20260901093533 57 0.0 1.0 0.00 0.00 0.00 86 1012.7
20260901092530 57 245 1.0 2.0 0.00 0.00 0.00 86 1012.5
20260901091550 57 0.0 2.0 0.00 0.00 0.00 86 1012.4
20260901090528 58 0.0 0.0 0.00 0.00 0.00 86 1012.3
20260901085526 58 330 0.0 1.0 0.00 0.00 0.00 86 1012.3
20260901084525 58 0.0 0.0 0.00 0.00 0.00 86 1012.4
20260901083523 58 0.0 0.0 0.00 0.00 0.00 85 1012.3
20260901082522 58 315 0.0 2.0 0.00 0.00 0.00 85 1012.4
20260901081520 59 201 1.0 3.0 0.00 0.00 0.00 84 1012.4
20260901080518 59 0.0 0.0 0.00 0.00 0.00 83 1012.2
20260901075517 59 150 1.0 2.0 0.00 0.00 0.00 83 1012.2
20260901074515 60 166 1.0 2.0 0.00 0.00 0.00 82 1012.2
20260901073614 60 155 1.0 2.0 0.00 0.00 0.00 82 1012.2
20260901072632 60 168 0.0 2.0 0.00 0.00 0.00 81 1012.2
20260901071610 61 0.0 2.0 0.00 0.00 0.00 80 1012.0
20260901070610 61 0.0 1.0 0.00 0.00 0.00 79 1011.8
20260901065607 62 0.0 2.0 0.00 0.00 0.00 78 1011.8
20260901064648 62 185 0.0 2.0 0.00 0.00 0.00 76 1011.5
20260901063603 63 166 1.0 3.0 0.00 0.00 0.00 75 1011.4
20260901062600 64 0.0 1.0 0.00 0.00 0.00 73 1011.2
20260901061558 65 175 1.0 3.0 0.00 0.00 0.00 72 1011.0
20260901060557 65 0.0 0.0 0.00 0.00 0.00 73 1011.0
20260901055554 66 0.0 0.0 0.00 0.00 0.00 72 1010.9
20260901054614 66 0.0 0.0 0.00 0.00 0.00 71 1010.7
20260901053552 67 0.0 0.0 0.00 0.00 0.00 70 1010.7
20260901052550 67 0.0 0.0 0.00 0.00 0.00 69 1010.7
20260901051547 68 314 0.0 1.0 0.00 0.00 0.00 67 1010.7
20260901050545 68 0.0 0.0 0.00 0.00 0.00 65 1010.5
20260901045543 69 332 0.0 2.0 0.00 0.00 0.00 62 1010.4
20260901044621 69 348 0.0 1.0 0.00 0.00 0.00 60 1010.4
20260901043559 70 0.0 2.0 0.00 0.00 0.00 58 1010.3
20260901042537 70 0.0 1.0 0.00 0.00 0.00 57 1010.1
20260901041555 69 0.0 1.0 0.00 0.00 0.00 58 1009.9
20260901040533 70 0.0 1.0 0.00 0.00 0.00 58 1009.8
20260901035530 70 0.0 2.0 0.00 0.00 0.00 57 1009.8
20260901034528 71 0.0 0.0 0.00 0.00 0.00 57 1009.7
20260901033526 71 0.0 0.0 0.00 0.00 0.00 57 1009.5
20260901032605 72 0.0 0.0 0.00 0.00 0.00 56 1009.4
20260901031524 73 0.0 1.0 0.00 0.00 0.00 54 1009.2
20260901030522 74 0.0 0.0 0.00 0.00 0.00 53 1009.4
20260901025520 75 0.0 0.0 0.00 0.00 0.00 52 1009.3
20260901024517 76 0.0 2.0 0.00 0.00 0.00 48 1009.4
20260901023615 77 0.0 0.0 0.00 0.00 0.00 47 1009.4
20260901022613 78 158 1.0 2.0 0.00 0.00 0.00 46 1009.3
20260901021611 79 0.0 1.0 0.00 0.00 0.00 46 1009.3
20260901020609 80 144 1.0 4.0 0.00 0.00 0.00 45 1009.3
20260901015607 81 154 1.0 4.0 0.00 0.00 0.00 44 1009.3
20260901014605 82 144 1.0 3.0 0.00 0.00 0.00 44 1009.1
20260901013602 82 215 2.0 3.0 0.00 0.00 0.00 43 1009.1
20260901012600 82 96 1.0 3.0 0.00 0.00 0.00 41 1009.1
20260901011558 83 278 0.0 2.0 0.00 0.00 0.00 38 1009.3
20260901010556 84 194 2.0 3.0 0.00 0.00 0.00 36 1009.2
20260901005554 85 161 1.0 3.0 0.00 0.00 0.00 35 1009.3
20260901004552 86 158 2.0 4.0 0.00 0.00 0.00 34 1009.1
20260901003549 87 173 0.0 2.0 0.00 0.00 0.00 34 1009.2
20260901002547 86 139 3.0 6.0 0.00 0.00 0.00 34 1009.3
20260901001546 87 116 1.0 4.0 0.00 0.00 0.00 34 1009.2
20260901000543 86 128 2.0 4.0 0.00 0.00 0.00 35 1009.3
20260831235541 88 115 3.0 5.0 0.00 0.00 0.00 33 1009.3
20260831234539 87 0.0 2.0 0.00 0.00 0.00 34 1009.4
20260831233536 88 131 2.0 4.0 0.00 0.00 0.00 33 1009.3
20260831232535 87 163 1.0 3.0 0.00 0.00 0.00 34 1009.4
20260831231534 87 147 2.0 6.0 0.00 0.00 0.00 34 1009.4
20260831230532 88 72 2.0 4.0 0.00 0.00 0.00 33 1009.5
20260831225530 88 122 1.0 4.0 0.00 0.00 0.00 34 1009.7
20260831224528 87 119 3.0 5.0 0.00 0.00 0.00 35 1009.7
20260831223526 86 136 2.0 5.0 0.00 0.00 0.00 36 1009.8
20260831222525 87 149 2.0 5.0 0.00 0.00 0.00 34 1009.8
20260831221524 87 93 1.0 3.0 0.00 0.00 0.00 36 1009.8
20260831220541 87 102 2.0 4.0 0.00 0.00 0.00 35 1009.9
20260831215519 86 115 2.0 4.0 0.00 0.00 0.00 36 1010.0
20260831214517 85 127 0.0 4.0 0.00 0.00 0.00 37 1010.1
20260831213615 85 119 1.0 3.0 0.00 0.00 0.00 38 1010.3
20260831212614 85 97 1.0 3.0 0.00 0.00 0.00 38 1010.3
20260831211612 86 146 2.0 5.0 0.00 0.00 0.00 37 1010.3
20260831210611 85 51 2.0 3.0 0.00 0.00 0.00 38 1010.4
20260831205608 83 85 1.0 3.0 0.00 0.00 0.00 40 1010.5
20260831204606 84 349 1.0 3.0 0.00 0.00 0.00 40 1010.6
20260831203604 83 169 3.0 5.0 0.00 0.00 0.00 40 1010.8
20260831202602 82 119 1.0 5.0 0.00 0.00 0.00 42 1011.0
20260831201602 81 155 1.0 4.0 0.00 0.00 0.00 42 1010.9
20260831200558 79 158 2.0 5.0 0.00 0.00 0.00 43 1011.2
20260831195555 78 212 1.0 4.0 0.00 0.00 0.00 45 1011.3
20260831194554 78 232 1.0 2.0 0.00 0.00 0.00 45 1011.4
20260831193551 78 223 1.0 3.0 0.00 0.00 0.00 47 1011.4
20260831192549 78 218 1.0 3.0 0.00 0.00 0.00 47 1011.5
20260831191547 77 255 1.0 4.0 0.00 0.00 0.00 48 1011.8
20260831190545 75 188 1.0 3.0 0.00 0.00 0.00 50 1012.0
20260831185543 75 329 2.0 3.0 0.00 0.00 0.00 50 1011.9
20260831184541 74 228 2.0 5.0 0.00 0.00 0.00 53 1012.0
20260831183559 74 175 1.0 4.0 0.00 0.00 0.00 52 1012.1
20260831182537 71 125 3.0 3.0 0.00 0.00 0.00 56 1012.3
20260831181555 0 0.0 0.0 0.00 0.00 0.00 1012.5
20260831180532 0 0.0 0.0 0.00 0.00 0.00 1012.5
20260831175530 69 219 3.0 5.0 0.00 0.00 0.00 60 1012.7
20260831174528 68 277 3.0 5.0 0.00 0.00 0.00 62 1012.7
20260831173606 66 250 1.0 4.0 0.00 0.00 0.00 65 1012.7